QPF
0.00 0.00 0.00 0.00 0.00 0.00 0.00 0.00 0.00 0.00 0.00 0.00 0.00 0.00 0.00 0.00 0.00 0.00 0.00 0.00 0.00 0.00 0.00 0.00 0.00 0.00 0.00 0.00 0.00 0.00 0.00 0.00 0.00 0.00 0.00 0.00 0.00 0.00 0.00 0.00 0.00 0.00 0.01 0.01 0.01 0.01 0.01 0.01 0.01
0.00 0.00 0.00 0.00 0.00 0.00 0.00 0.00 0.00 0.00 0.00 0.00 0.00 0.00 0.00 0.00 0.00 0.00 0.00 0.00 0.00 0.00 0.00 0.00 0.00 0.00 0.00 0.00 0.00 0.00 0.00 0.00 0.00 0.00 0.00 0.00 0.00 0.00 0.00 0.00 0.00 0.00 0.00 0.00 0.00 0.00 0.00 0.00 0.00
0.00 0.00 0.00 0.00 0.00 0.00 0.00 0.00 0.00 0.00 0.00 0.00 0.00 0.00 0.00 0.00 0.00 0.00 0.00 0.00 0.00 0.00 0.00 0.00 0.00 0.00 0.00 0.00 0.00 0.00 0.00 0.00 0.00 0.00 0.00 0.00 0.00 0.00 0.00 0.00 0.00 0.00 0.00 0.00 0.00 0.00 0.00 0.00 0.00
0.00 0.00 0.00 0.00 0.00 0.00 0.00 0.00 0.00 0.00 0.00 0.00 0.00 0.00 0.00 0.00 0.00 0.00 0.00 0.00 0.00 0.00 0.00 0.00 0.00 0.00 0.00 0.00 0.00 0.00 0.00 0.00 0.00 0.00 0.00 0.00 0.00 0.00 0.00 0.00 0.00 0.00 0.00 0.00 0.00 0.00 0.00 0.00 0.00
0.00 0.00 0.00 0.00 0.00 0.00 0.00 0.00 0.00 0.00 0.00 0.00 0.00 0.00 0.00 0.00 0.00 0.00 0.00 0.00 0.00 0.00 0.00 0.00 0.00 0.00 0.00 0.00 0.00 0.00 0.00 0.00 0.00 0.00 0.00 0.00 0.00 0.00 0.00 0.00 0.00 0.00 0.00 0.00 0.00 0.00 0.00 0.00 0.00
0.00 0.00 0.00 0.00 0.00 0.00 0.00 0.00 0.00 0.00 0.00 0.00 0.00 0.00 0.00 0.00 0.00 0.00 0.00 0.00 0.00 0.00 0.00 0.00 0.00 0.00 0.00 0.00 0.00 0.00 0.00 0.00 0.00 0.00 0.00 0.00 0.00 0.00 0.00 0.00 0.00 0.00 0.00 0.00 0.00 0.00 0.00 0.00 0.00
0.00 0.00 0.00 0.00 0.00 0.00 0.00 0.00 0.00 0.00 0.00 0.00 0.00 0.00 0.00 0.00 0.00 0.00 0.00 0.00 0.00 0.00 0.00 0.00 0.00 0.00 0.00 0.00 0.00 0.00 0.00 0.00 0.00 0.00 0.00 0.00 0.00 0.00 0.00 0.00 0.00 0.00 0.00 0.00 0.00 0.00 0.00 0.00 0.00
0.00 0.00 0.00 0.00 0.00 0.00 0.00 0.00 0.00 0.00 0.00 0.00 0.00 0.00 0.00 0.00 0.00 0.00 0.00 0.00 0.00 0.00 0.00 0.00 0.00 0.00 0.00 0.00 0.00 0.00 0.00 0.00 0.00 0.00 0.00 0.00 0.00 0.00 0.00 0.00 0.00 0.00 0.00 0.00 0.00 0.00 0.00 0.00 0.00
0.00 0.00 0.00 0.00 0.00 0.00 0.00 0.00 0.00 0.00 0.00 0.00 0.00 0.00 0.00 0.00 0.00 0.00 0.00 0.00 0.00 0.00 0.00 0.00 0.00 0.00 0.00 0.00 0.00 0.00 0.00 0.00 0.00 0.00 0.00 0.00 0.00 0.00 0.00 0.00 0.00 0.00 0.00 0.00 0.00 0.00 0.00 0.00 0.00
0.00 0.00 0.00 0.00 0.00 0.00 0.00 0.00 0.00 0.00 0.00 0.00 0.00 0.00 0.00 0.00 0.00 0.00 0.00 0.00 0.00 0.00 0.00 0.00 0.00 0.00 0.00 0.00 0.00 0.00 0.00 0.00 0.00 0.00 0.00 0.00 0.00 0.00 0.00 0.00 0.00 0.00 0.00 0.00 0.00 0.00 0.00 0.00 0.00
0.00 0.00 0.00 0.00 0.00 0.00 0.00 0.00 0.00 0.00 0.00 0.00 0.00 0.00 0.00 0.00 0.00 0.00 0.00 0.00 0.00 0.00 0.00 0.00 0.00 0.00 0.00 0.00 0.00 0.00 0.00 0.00 0.00 0.00 0.00 0.00 0.00 0.00 0.00 0.00 0.00 0.00 0.00 0.00 0.00 0.00 0.00 0.00 0.00
0.00 0.00 0.00 0.00 0.00 0.00 0.00 0.00 0.00 0.00 0.00 0.00 0.00 0.00 0.00 0.00 0.00 0.00 0.00 0.00 0.00 0.00 0.00 0.00 0.00 0.00 0.00 0.00 0.00 0.00 0.00 0.00 0.00 0.00 0.00 0.00 0.00 0.00 0.00 0.00 0.00 0.00 0.00 0.00 0.00 0.00 0.00 0.00 0.00
0.00 0.00 0.00 0.00 0.00 0.00 0.00 0.00 0.00 0.00 0.00 0.00 0.00 0.00 0.00 0.00 0.00 0.00 0.00 0.00 0.00 0.00 0.00 0.00 0.00 0.00 0.00 0.00 0.00 0.00 0.00 0.00 0.00 0.00 0.00 0.00 0.00 0.00 0.00 0.00 0.00 0.00 0.00 0.00 0.00 0.00 0.00 0.00 0.00
0.00 0.00 0.00 0.00 0.00 0.00 0.00 0.00 0.00 0.00 0.00 0.00 0.00 0.00 0.00 0.00 0.00 0.00 0.00 0.00 0.00 0.00 0.00 0.00 0.00 0.00 0.00 0.00 0.00 0.00 0.00 0.00 0.00 0.00 0.00 0.00 0.00 0.00 0.00 0.00 0.00 0.00 0.00 0.00 0.00 0.00 0.00 0.00 0.00
0.00 0.00 0.00 0.00 0.00 0.00 0.00 0.00 0.00 0.00 0.00 0.00 0.00 0.00 0.00 0.00 0.00 0.00 0.00 0.00 0.00 0.00 0.00 0.00 0.00 0.00 0.00 0.00 0.00 0.00 0.00 0.00 0.00 0.00 0.00 0.00 0.00 0.00 0.00 0.00 0.00 0.00 0.00 0.00 0.00 0.00 0.00 0.00 0.00
0.00 0.00 0.00 0.00 0.00 0.00 0.00 0.00 0.00 0.00 0.00 0.00 0.00 0.00 0.00 0.00 0.00 0.00 0.00 0.00 0.00 0.00 0.00 0.00 0.00 0.00 0.00 0.00 0.00 0.00 0.00 0.00 0.00 0.00 0.00 0.00 0.00 0.00 0.00 0.00 0.00 0.00 0.00 0.00 0.00 0.00 0.00 0.00 0.00
0.00 0.00 0.00 0.00 0.00 0.00 0.00 0.00 0.00 0.00 0.00 0.00 0.00 0.00 0.00 0.00 0.00 0.00 0.00 0.00 0.00 0.00 0.00 0.00 0.00 0.00 0.00 0.00 0.00 0.00 0.00 0.00 0.00 0.00 0.00 0.00 0.00 0.00 0.00 0.00 0.00 0.00 0.00 0.00 0.00 0.00 0.00 0.00 0.00
0.00 0.00 0.00 0.00 0.00 0.00 0.00 0.00 0.00 0.00 0.00 0.00 0.00 0.00 0.00 0.00 0.00 0.00 0.00 0.00 0.00 0.00 0.00 0.00 0.00 0.00 0.00 0.00 0.00 0.00 0.00 0.00 0.00 0.00 0.00 0.00 0.00 0.00 0.00 0.00 0.00 0.00 0.00 0.00 0.00 0.00 0.00 0.00 0.00
0.00 0.00 0.00 0.00 0.00 0.00 0.00 0.00 0.00 0.00 0.00 0.00 0.00 0.00 0.00 0.00 0.00 0.00 0.00 0.00 0.00 0.00 0.00 0.00 0.00 0.00 0.00 0.00 0.00 0.00 0.00 0.00 0.00 0.00 0.00 0.00 0.00 0.00 0.00 0.00 0.00 0.00 0.00 0.00 0.00 0.00 0.00 0.00 0.00
0.00 0.00 0.00 0.00 0.00 0.00 0.00 0.00 0.00 0.00 0.00 0.00 0.00 0.00 0.00 0.00 0.00 0.00 0.00 0.00 0.00 0.00 0.00 0.00 0.00 0.00 0.00 0.00 0.00 0.00 0.00 0.00 0.00 0.00 0.00 0.00 0.00 0.00 0.00 0.00 0.00 0.00 0.00 0.00 0.00 0.00 0.00 0.00 0.00
0.00 0.00 0.00 0.00 0.00 0.00 0.00 0.00 0.00 0.00 0.00 0.00 0.00 0.00 0.00 0.00 0.00 0.00 0.00 0.00 0.00 0.00 0.00 0.00 0.00 0.00 0.00 0.00 0.00 0.00 0.00 0.00 0.00 0.00 0.00 0.00 0.00 0.00 0.00 0.00 0.00 0.00 0.00 0.00 0.00 0.00 0.00 0.00 0.00
0.00 0.00 0.00 0.00 0.00 0.00 0.00 0.00 0.00 0.00 0.00 0.00 0.00 0.00 0.00 0.00 0.00 0.00 0.00 0.00 0.00 0.00 0.00 0.00 0.00 0.00 0.00 0.00 0.00 0.00 0.00 0.00 0.00 0.00 0.00 0.00 0.00 0.00 0.00 0.00 0.00 0.00 0.00 0.00 0.00 0.00 0.00 0.00 0.00
0.00 0.00 0.00 0.00 0.00 0.00 0.00 0.00 0.00 0.00 0.00 0.00 0.00 0.00 0.00 0.00 0.00 0.00 0.00 0.00 0.00 0.00 0.00 0.00 0.00 0.00 0.00 0.00 0.00 0.00 0.00 0.00 0.00 0.00 0.00 0.00 0.00 0.00 0.00 0.00 0.00 0.00 0.00 0.00 0.00 0.00 0.00 0.00 0.00
0.00 0.00 0.00 0.00 0.00 0.00 0.00 0.00 0.00 0.00 0.00 0.00 0.00 0.00 0.00 0.00 0.00 0.00 0.00 0.00 0.00 0.00 0.00 0.00 0.00 0.00 0.00 0.00 0.00 0.00 0.00 0.00 0.00 0.00 0.00 0.00 0.00 0.00 0.00 0.00 0.00 0.00 0.00 0.00 0.00 0.00 0.00 0.00 0.00
0.00 0.00 0.00 0.00 0.00 0.00 0.00 0.00 0.00 0.00 0.00 0.00 0.00 0.00 0.00 0.00 0.00 0.00 0.00 0.00 0.00 0.00 0.00 0.00 0.00 0.00 0.00 0.00 0.00 0.00 0.00 0.00 0.00 0.00 0.00 0.00 0.00 0.00 0.00 0.00 0.00 0.00 0.00 0.00 0.00 0.00 0.00 0.00 0.00
0.00 0.00 0.00 0.00 0.00 0.00 0.00 0.00 0.00 0.00 0.00 0.00 0.00 0.00 0.00 0.00 0.00 0.00 0.00 0.00 0.00 0.00 0.00 0.00 0.00 0.00 0.00 0.00 0.00 0.00 0.00 0.00 0.00 0.00 0.00 0.00 0.00 0.00 0.00 0.00 0.00 0.00 0.00 0.00 0.00 0.00 0.00 0.00 0.00
0.00 0.00 0.00 0.00 0.00 0.00 0.00 0.00 0.00 0.00 0.00 0.00 0.00 0.00 0.00 0.00 0.00 0.00 0.00 0.00 0.00 0.00 0.00 0.00 0.00 0.00 0.00 0.00 0.00 0.00 0.00 0.00 0.00 0.00 0.00 0.00 0.00 0.00 0.00 0.00 0.00 0.00 0.00 0.00 0.00 0.00 0.00 0.00 0.00
0.00 0.00 0.00 0.00 0.00 0.00 0.00 0.00 0.00 0.00 0.00 0.00 0.00 0.00 0.00 0.00 0.00 0.00 0.00 0.00 0.00 0.00 0.00 0.00 0.00 0.00 0.00 0.00 0.00 0.00 0.00 0.00 0.00 0.00 0.00 0.00 0.00 0.00 0.00 0.00 0.00 0.00 0.00 0.00 0.00 0.00 0.00 0.00 0.00
0.00 0.00 0.00 0.00 0.00 0.00 0.00 0.00 0.00 0.00 0.00 0.00 0.00 0.00 0.00 0.00 0.00 0.00 0.00 0.00 0.00 0.00 0.00 0.00 0.00 0.00 0.00 0.00 0.00 0.00 0.00 0.00 0.00 0.00 0.00 0.00 0.00 0.00 0.00 0.00 0.00 0.00 0.00 0.01 0.00 0.00 0.00 0.00 0.00
0.00 0.00 0.00 0.00 0.00 0.00 0.00 0.00 0.00 0.00 0.00 0.00 0.00 0.00 0.00 0.00 0.00 0.00 0.00 0.00 0.00 0.00 0.00 0.00 0.00 0.00 0.00 0.00 0.00 0.00 0.00 0.00 0.00 0.00 0.00 0.00 0.00 0.00 0.00 0.00 0.00 0.00 0.00 0.00 0.00 0.00 0.00 0.00 0.00
MSLP
1016.53 1016.78 1017.23 1017.85 1018.61 1019.42 1020.22 1020.93 1021.49 1021.87 1022.08 1022.17 1022.18 1022.18 1022.23 1022.36 1022.59 1022.92 1023.31 1023.73 1024.17 1024.60 1025.01 1025.42 1025.83 1026.23 1026.62 1026.98 1027.28 1027.51 1027.64 1027.68 1027.65 1027.58 1027.49 1027.43 1027.41 1027.43 1027.48 1027.52 1027.53 1027.49 1027.40 1027.27 1027.15 1027.04 1027.00 1027.02 1027.09
1016.70 1017.03 1017.56 1018.24 1019.03 1019.83 1020.58 1021.21 1021.68 1021.96 1022.08 1022.09 1022.05 1022.03 1022.08 1022.24 1022.50 1022.85 1023.27 1023.70 1024.14 1024.57 1024.98 1025.37 1025.78 1026.18 1026.58 1026.96 1027.29 1027.56 1027.75 1027.84 1027.87 1027.86 1027.83 1027.82 1027.83 1027.87 1027.91 1027.93 1027.92 1027.86 1027.75 1027.62 1027.49 1027.39 1027.35 1027.37 1027.43
1016.99 1017.38 1017.94 1018.62 1019.37 1020.11 1020.76 1021.29 1021.64 1021.83 1021.88 1021.85 1021.81 1021.82 1021.92 1022.14 1022.46 1022.87 1023.33 1023.79 1024.23 1024.65 1025.05 1025.43 1025.81 1026.19 1026.59 1026.96 1027.31 1027.60 1027.83 1027.98 1028.08 1028.13 1028.17 1028.20 1028.25 1028.30 1028.33 1028.34 1028.30 1028.21 1028.08 1027.93 1027.79 1027.69 1027.65 1027.66 1027.70
1017.36 1017.78 1018.33 1018.96 1019.62 1020.24 1020.76 1021.16 1021.40 1021.50 1021.51 1021.48 1021.47 1021.55 1021.73 1022.04 1022.45 1022.92 1023.43 1023.92 1024.37 1024.79 1025.16 1025.52 1025.87 1026.24 1026.61 1026.97 1027.32 1027.63 1027.89 1028.09 1028.24 1028.36 1028.46 1028.55 1028.63 1028.69 1028.73 1028.73 1028.67 1028.56 1028.41 1028.25 1028.11 1028.00 1027.95 1027.94 1027.96
1017.78 1018.19 1018.69 1019.23 1019.76 1020.23 1020.61 1020.87 1021.00 1021.04 1021.02 1021.02 1021.08 1021.24 1021.53 1021.93 1022.43 1022.97 1023.51 1024.02 1024.48 1024.89 1025.25 1025.58 1025.91 1026.25 1026.60 1026.96 1027.30 1027.62 1027.90 1028.14 1028.35 1028.53 1028.68 1028.83 1028.95 1029.04 1029.09 1029.09 1029.02 1028.91 1028.76 1028.59 1028.45 1028.34 1028.27 1028.25 1028.25
1018.18 1018.57 1018.99 1019.42 1019.81 1020.13 1020.35 1020.48 1020.52 1020.51 1020.51 1020.55 1020.69 1020.95 1021.33 1021.82 1022.38 1022.96 1023.53 1024.04 1024.50 1024.89 1025.23 1025.55 1025.87 1026.20 1026.54 1026.89 1027.23 1027.57 1027.87 1028.15 1028.40 1028.63 1028.84 1029.04 1029.20 1029.33 1029.41 1029.42 1029.37 1029.26 1029.12 1028.97 1028.83 1028.72 1028.64 1028.60 1028.56
1018.53 1018.88 1019.23 1019.54 1019.79 1019.96 1020.05 1020.07 1020.04 1020.01 1020.03 1020.13 1020.35 1020.69 1021.15 1021.70 1022.29 1022.89 1023.44 1023.94 1024.37 1024.74 1025.07 1025.39 1025.71 1026.04 1026.39 1026.75 1027.12 1027.47 1027.80 1028.11 1028.40 1028.67 1028.94 1029.18 1029.39 1029.56 1029.67 1029.71 1029.68 1029.60 1029.48 1029.35 1029.22 1029.11 1029.02 1028.95 1028.89
1018.82 1019.13 1019.40 1019.61 1019.74 1019.79 1019.77 1019.70 1019.62 1019.58 1019.62 1019.77 1020.05 1020.46 1020.97 1021.54 1022.13 1022.71 1023.23 1023.69 1024.09 1024.43 1024.76 1025.08 1025.42 1025.78 1026.16 1026.56 1026.95 1027.32 1027.68 1028.02 1028.35 1028.67 1028.97 1029.25 1029.50 1029.70 1029.85 1029.92 1029.93 1029.88 1029.79 1029.68 1029.57 1029.46 1029.36 1029.27 1029.18
1019.04 1019.32 1019.53 1019.65 1019.69 1019.64 1019.53 1019.40 1019.28 1019.23 1019.29 1019.47 1019.78 1020.22 1020.74 1021.30 1021.87 1022.40 1022.87 1023.29 1023.65 1023.98 1024.31 1024.66 1025.03 1025.43 1025.86 1026.30 1026.73 1027.14 1027.53 1027.90 1028.25 1028.60 1028.93 1029.24 1029.52 1029.76 1029.93 1030.04 1030.08 1030.06 1030.00 1029.91 1029.82 1029.71 1029.61 1029.51 1029.40
1019.24 1019.49 1019.65 1019.71 1019.66 1019.54 1019.35 1019.16 1019.00 1018.93 1018.97 1019.15 1019.47 1019.89 1020.39 1020.92 1021.44 1021.92 1022.35 1022.73 1023.07 1023.40 1023.75 1024.13 1024.56 1025.02 1025.50 1025.99 1026.46 1026.91 1027.32 1027.72 1028.09 1028.46 1028.81 1029.14 1029.44 1029.70 1029.90 1030.03 1030.09 1030.10 1030.06 1030.00 1029.92 1029.83 1029.73 1029.62 1029.50
1019.42 1019.64 1019.76 1019.77 1019.66 1019.47 1019.21 1018.95 1018.73 1018.60 1018.60 1018.74 1019.01 1019.39 1019.84 1020.33 1020.80 1021.24 1021.64 1022.00 1022.35 1022.71 1023.10 1023.53 1024.02 1024.54 1025.08 1025.62 1026.13 1026.61 1027.05 1027.47 1027.85 1028.23 1028.59 1028.93 1029.24 1029.51 1029.72 1029.86 1029.94 1029.97 1029.96 1029.92 1029.86 1029.79 1029.70 1029.61 1029.49
1019.59 1019.79 1019.87 1019.83 1019.66 1019.39 1019.06 1018.71 1018.40 1018.18 1018.09 1018.14 1018.33 1018.64 1019.03 1019.47 1019.91 1020.33 1020.73 1021.11 1021.50 1021.91 1022.36 1022.87 1023.43 1024.01 1024.61 1025.19 1025.73 1026.23 1026.69 1027.11 1027.51 1027.89 1028.25 1028.60 1028.91 1029.18 1029.40 1029.55 1029.64 1029.69 1029.69 1029.68 1029.64 1029.60 1029.54 1029.47 1029.37
1019.75 1019.92 1019.96 1019.86 1019.62 1019.27 1018.84 1018.38 1017.95 1017.60 1017.38 1017.31 1017.39 1017.61 1017.93 1018.32 1018.75 1019.18 1019.62 1020.06 1020.52 1021.01 1021.55 1022.14 1022.77 1023.41 1024.06 1024.67 1025.24 1025.76 1026.22 1026.65 1027.05 1027.43 1027.79 1028.14 1028.46 1028.73 1028.95 1029.11 1029.21 1029.27 1029.30 1029.31 1029.31 1029.30 1029.28 1029.24 1029.18
1019.88 1020.00 1019.99 1019.83 1019.51 1019.07 1018.53 1017.93 1017.35 1016.85 1016.47 1016.25 1016.20 1016.31 1016.57 1016.93 1017.36 1017.83 1018.34 1018.87 1019.43 1020.02 1020.66 1021.33 1022.03 1022.73 1023.41 1024.05 1024.63 1025.15 1025.62 1026.05 1026.45 1026.83 1027.21 1027.56 1027.88 1028.16 1028.39 1028.56 1028.68 1028.76 1028.82 1028.86 1028.90 1028.93 1028.95 1028.95 1028.93
1019.93 1019.99 1019.92 1019.70 1019.31 1018.77 1018.11 1017.38 1016.64 1015.96 1015.41 1015.03 1014.84 1014.85 1015.04 1015.38 1015.83 1016.37 1016.96 1017.59 1018.26 1018.96 1019.70 1020.45 1021.21 1021.95 1022.66 1023.31 1023.90 1024.43 1024.90 1025.33 1025.73 1026.12 1026.50 1026.87 1027.21 1027.51 1027.76 1027.95 1028.09 1028.20 1028.29 1028.37 1028.44 1028.52 1028.59 1028.64 1028.65
1019.89 1019.90 1019.77 1019.48 1019.02 1018.39 1017.62 1016.76 1015.87 1015.02 1014.30 1013.76 1013.45 1013.36 1013.49 1013.82 1014.30 1014.90 1015.57 1016.30 1017.07 1017.86 1018.67 1019.49 1020.30 1021.07 1021.80 1022.46 1023.05 1023.58 1024.05 1024.49 1024.90 1025.30 1025.70 1026.09 1026.45 1026.78 1027.06 1027.29 1027.47 1027.61 1027.74 1027.85 1027.97 1028.09 1028.21 1028.29 1028.33
1019.76 1019.71 1019.53 1019.20 1018.69 1017.99 1017.13 1016.15 1015.13 1014.14 1013.27 1012.60 1012.16 1011.99 1012.07 1012.39 1012.89 1013.53 1014.27 1015.07 1015.90 1016.76 1017.62 1018.47 1019.31 1020.10 1020.83 1021.50 1022.10 1022.63 1023.11 1023.55 1023.97 1024.39 1024.80 1025.22 1025.61 1025.98 1026.30 1026.58 1026.80 1026.99 1027.16 1027.32 1027.48 1027.64 1027.79 1027.90 1027.97
1019.56 1019.46 1019.26 1018.90 1018.36 1017.62 1016.70 1015.64 1014.51 1013.41 1012.43 1011.64 1011.11 1010.86 1010.90 1011.19 1011.70 1012.36 1013.13 1013.95 1014.81 1015.69 1016.56 1017.42 1018.25 1019.04 1019.77 1020.44 1021.05 1021.58 1022.07 1022.51 1022.94 1023.37 1023.81 1024.25 1024.68 1025.09 1025.47 1025.79 1026.08 1026.33 1026.54 1026.75 1026.94 1027.14 1027.31 1027.45 1027.54
1019.33 1019.22 1019.01 1018.65 1018.11 1017.36 1016.40 1015.29 1014.09 1012.90 1011.83 1010.96 1010.35 1010.05 1010.05 1010.31 1010.80 1011.45 1012.19 1013.00 1013.83 1014.67 1015.51 1016.34 1017.14 1017.91 1018.64 1019.31 1019.91 1020.45 1020.94 1021.39 1021.83 1022.26 1022.71 1023.17 1023.63 1024.09 1024.52 1024.92 1025.27 1025.57 1025.85 1026.10 1026.33 1026.55 1026.75 1026.91 1027.02
1019.13 1019.03 1018.84 1018.51 1017.98 1017.23 1016.26 1015.11 1013.87 1012.62 1011.48 1010.55 1009.90 1009.55 1009.51 1009.74 1010.18 1010.78 1011.47 1012.21 1012.97 1013.73 1014.49 1015.25 1016.00 1016.74 1017.44 1018.11 1018.71 1019.25 1019.74 1020.19 1020.62 1021.05 1021.50 1021.97 1022.46 1022.96 1023.45 1023.91 1024.33 1024.70 1025.03 1025.33 1025.61 1025.86 1026.08 1026.27 1026.40
1019.00 1018.94 1018.80 1018.51 1018.00 1017.26 1016.27 1015.10 1013.81 1012.52 1011.34 1010.37 1009.68 1009.30 1009.22 1009.41 1009.80 1010.32 1010.92 1011.55 1012.20 1012.84 1013.49 1014.16 1014.84 1015.52 1016.20 1016.84 1017.44 1017.99 1018.47 1018.91 1019.32 1019.73 1020.17 1020.64 1021.15 1021.68 1022.23 1022.75 1023.24 1023.69 1024.09 1024.44 1024.76 1025.04 1025.30 1025.51 1025.67
1018.98 1018.98 1018.89 1018.63 1018.15 1017.40 1016.39 1015.18 1013.85 1012.52 1011.31 1010.31 1009.59 1009.19 1009.08 1009.23 1009.55 1009.99 1010.48 1010.98 1011.48 1011.99 1012.51 1013.06 1013.65 1014.28 1014.92 1015.54 1016.14 1016.67 1017.14 1017.56 1017.95 1018.34 1018.75 1019.21 1019.73 1020.29 1020.87 1021.46 1022.03 1022.54 1023.01 1023.42 1023.78 1024.10 1024.39 1024.65 1024.85
1019.06 1019.12 1019.07 1018.84 1018.35 1017.58 1016.53 1015.27 1013.89 1012.52 1011.27 1010.26 1009.53 1009.11 1008.99 1009.09 1009.35 1009.70 1010.07 1010.44 1010.79 1011.15 1011.53 1011.96 1012.47 1013.02 1013.62 1014.23 1014.81 1015.33 1015.79 1016.18 1016.54 1016.90 1017.28 1017.72 1018.23 1018.81 1019.44 1020.08 1020.71 1021.29 1021.82 1022.28 1022.69 1023.06 1023.39 1023.69 1023.95
1019.20 1019.31 1019.30 1019.06 1018.55 1017.72 1016.62 1015.29 1013.86 1012.45 1011.18 1010.15 1009.42 1009.01 1008.87 1008.94 1009.15 1009.41 1009.67 1009.90 1010.11 1010.32 1010.57 1010.89 1011.29 1011.79 1012.35 1012.93 1013.50 1014.01 1014.45 1014.83 1015.15 1015.47 1015.83 1016.24 1016.75 1017.33 1017.98 1018.67 1019.35 1019.98 1020.56 1021.07 1021.52 1021.93 1022.30 1022.65 1022.98
1019.35 1019.50 1019.48 1019.22 1018.65 1017.76 1016.58 1015.20 1013.71 1012.27 1010.99 1009.97 1009.26 1008.86 1008.72 1008.77 1008.93 1009.11 1009.27 1009.38 1009.45 1009.53 1009.65 1009.86 1010.18 1010.62 1011.14 1011.70 1012.25 1012.76 1013.19 1013.55 1013.85 1014.14 1014.46 1014.85 1015.33 1015.91 1016.57 1017.28 1017.99 1018.67 1019.28 1019.83 1020.31 1020.75 1021.16 1021.56 1021.94
1019.45 1019.60 1019.55 1019.24 1018.60 1017.65 1016.41 1014.97 1013.46 1012.02 1010.75 1009.76 1009.08 1008.71 1008.58 1008.61 1008.73 1008.84 1008.90 1008.90 1008.85 1008.80 1008.80 1008.92 1009.17 1009.55 1010.03 1010.58 1011.12 1011.63 1012.05 1012.39 1012.67 1012.93 1013.22 1013.59 1014.05 1014.61 1015.26 1015.97 1016.69 1017.38 1018.02 1018.58 1019.08 1019.54 1019.98 1020.41 1020.85
1019.45 1019.56 1019.46 1019.08 1018.38 1017.36 1016.09 1014.64 1013.15 1011.74 1010.53 1009.60 1008.97 1008.63 1008.52 1008.54 1008.61 1008.65 1008.62 1008.51 1008.34 1008.18 1008.09 1008.11 1008.29 1008.62 1009.08 1009.60 1010.14 1010.64 1011.06 1011.39 1011.66 1011.90 1012.16 1012.49 1012.92 1013.46 1014.08 1014.77 1015.48 1016.16 1016.79 1017.35 1017.86 1018.32 1018.78 1019.24 1019.71
1019.32 1019.35 1019.18 1018.73 1017.98 1016.94 1015.66 1014.25 1012.83 1011.51 1010.39 1009.56 1009.01 1008.71 1008.62 1008.62 1008.64 1008.61 1008.48 1008.26 1007.99 1007.72 1007.53 1007.47 1007.59 1007.87 1008.29 1008.79 1009.32 1009.81 1010.23 1010.55 1010.80 1011.03 1011.26 1011.56 1011.95 1012.44 1013.03 1013.68 1014.35 1015.00 1015.61 1016.15 1016.65 1017.11 1017.56 1018.04 1018.53
1019.04 1018.98 1018.72 1018.21 1017.43 1016.40 1015.19 1013.87 1012.57 1011.39 1010.42 1009.70 1009.24 1009.00 1008.91 1008.89 1008.85 1008.73 1008.50 1008.17 1007.79 1007.43 1007.15 1007.02 1007.07 1007.30 1007.68 1008.15 1008.65 1009.12 1009.52 1009.84 1010.08 1010.28 1010.48 1010.74 1011.09 1011.53 1012.07 1012.66 1013.28 1013.89 1014.46 1014.98 1015.45 1015.90 1016.35 1016.83 1017.33
1018.64 1018.47 1018.12 1017.56 1016.78 1015.81 1014.70 1013.53 1012.41 1011.41 1010.60 1010.03 1009.66 1009.48 1009.39 1009.33 1009.22 1009.00 1008.66 1008.23 1007.75 1007.29 1006.93 1006.72 1006.71 1006.88 1007.21 1007.63 1008.09 1008.53 1008.91 1009.19 1009.41 1009.58 1009.76 1009.98 1010.27 1010.67 1011.14 1011.68 1012.24 1012.80 1013.33 1013.82 1014.27 1014.71 1015.15 1015.61 1016.11
Thickness
5735 5737 5739 5735 5723 5711 5704 5706 5707 5699 5699 5700 5698 5696 5697 5699 5696 5691 5677 5678 5674 5669 5664 5660 5655 5652 5648 5646 5644 5642 5640 5639 5637 5636 5635 5634 5633 5632 5631 5631 5631 5631 5631 5632 5633 5633 5634 5635 5635
5737 5739 5738 5731 5713 5700 5704 5711 5706 5705 5702 5695 5693 5694 5696 5701 5695 5685 5677 5674 5671 5667 5663 5660 5654 5650 5647 5644 5641 5639 5637 5635 5633 5632 5630 5629 5628 5627 5626 5625 5625 5624 5624 5624 5625 5625 5626 5627 5627
5739 5741 5733 5723 5710 5705 5707 5713 5712 5701 5696 5695 5694 5695 5699 5702 5693 5687 5681 5672 5669 5665 5662 5657 5652 5648 5645 5641 5639 5636 5634 5632 5629 5628 5626 5624 5623 5621 5620 5619 5618 5618 5617 5617 5617 5617 5618 5618 5619
5741 5737 5731 5719 5709 5714 5715 5715 5709 5697 5691 5692 5696 5696 5697 5695 5691 5687 5679 5671 5668 5664 5660 5655 5650 5646 5642 5639 5636 5633 5631 5628 5625 5623 5621 5620 5618 5616 5615 5613 5612 5611 5611 5610 5610 5610 5610 5610 5610
5740 5732 5719 5711 5712 5717 5717 5711 5706 5702 5699 5698 5694 5701 5701 5692 5685 5681 5675 5670 5667 5663 5658 5653 5648 5644 5640 5637 5633 5630 5628 5625 5622 5619 5617 5615 5613 5611 5609 5608 5606 5605 5604 5604 5603 5602 5602 5602 5602
5731 5728 5712 5707 5715 5719 5717 5709 5704 5704 5705 5698 5693 5698 5705 5689 5682 5678 5673 5668 5664 5660 5655 5651 5646 5642 5638 5634 5631 5628 5624 5621 5618 5615 5613 5610 5608 5606 5604 5602 5601 5599 5598 5597 5596 5595 5594 5594 5594
5726 5719 5711 5711 5713 5717 5718 5708 5705 5707 5705 5701 5699 5699 5705 5688 5682 5675 5670 5665 5662 5657 5653 5649 5645 5640 5636 5632 5629 5625 5621 5618 5615 5611 5608 5605 5603 5601 5599 5597 5595 5593 5592 5591 5590 5588 5587 5586 5586
5728 5718 5711 5712 5710 5715 5719 5705 5705 5704 5706 5706 5699 5701 5707 5694 5680 5672 5667 5662 5659 5655 5651 5647 5644 5641 5636 5631 5627 5623 5619 5615 5611 5607 5604 5600 5598 5595 5593 5591 5589 5587 5585 5584 5582 5581 5579 5578 5578
5724 5711 5706 5712 5711 5717 5712 5703 5702 5700 5702 5695 5698 5702 5693 5686 5676 5669 5664 5660 5657 5653 5650 5647 5643 5639 5635 5630 5626 5621 5617 5612 5608 5604 5599 5596 5593 5591 5588 5585 5583 5580 5578 5577 5575 5573 5571 5570 5569
5717 5707 5712 5717 5716 5715 5707 5704 5704 5696 5697 5699 5697 5694 5682 5678 5674 5671 5669 5666 5662 5657 5652 5647 5643 5638 5633 5629 5624 5620 5616 5611 5607 5603 5597 5593 5590 5587 5583 5579 5576 5574 5571 5569 5567 5565 5564 5563 5562
5715 5712 5715 5710 5708 5705 5704 5702 5702 5700 5704 5711 5711 5706 5687 5679 5676 5676 5675 5673 5669 5662 5654 5649 5643 5638 5633 5628 5623 5619 5615 5610 5605 5601 5596 5591 5587 5583 5579 5575 5571 5568 5565 5563 5560 5559 5557 5555 5552
5711 5712 5707 5707 5700 5699 5701 5703 5702 5702 5716 5723 5718 5712 5692 5686 5684 5683 5681 5678 5671 5664 5658 5650 5644 5638 5633 5628 5623 5619 5614 5609 5604 5599 5594 5589 5584 5580 5576 5572 5569 5564 5561 5557 5554 5551 5549 5546 5543
5708 5708 5703 5701 5697 5698 5698 5701 5703 5712 5718 5717 5709 5703 5696 5694 5692 5689 5686 5680 5673 5667 5661 5653 5645 5639 5633 5628 5623 5618 5614 5609 5604 5598 5593 5588 5583 5579 5574 5570 5565 5560 5556 5552 5548 5545 5541 5537 5534
5705 5703 5702 5700 5697 5696 5694 5702 5697 5717 5723 5717 5709 5706 5703 5702 5698 5694 5688 5684 5679 5672 5665 5657 5648 5641 5634 5629 5624 5619 5614 5608 5603 5597 5592 5586 5581 5577 5571 5566 5561 5557 5551 5547 5542 5537 5533 5529 5525
5698 5698 5706 5701 5696 5696 5692 5702 5707 5724 5722 5717 5716 5714 5710 5707 5703 5700 5696 5691 5685 5678 5669 5660 5652 5643 5636 5630 5624 5619 5614 5608 5603 5597 5591 5585 5579 5573 5568 5563 5557 5552 5546 5540 5535 5530 5524 5520 5515
5697 5699 5703 5705 5695 5690 5688 5710 5729 5732 5721 5721 5724 5724 5719 5714 5710 5707 5701 5694 5688 5680 5671 5664 5654 5646 5639 5631 5625 5619 5614 5608 5602 5597 5590 5583 5577 5570 5564 5558 5553 5547 5540 5534 5528 5523 5518 5513 5507
5699 5700 5701 5704 5695 5689 5687 5709 5732 5730 5718 5722 5728 5730 5727 5722 5716 5711 5705 5699 5691 5683 5675 5666 5657 5649 5641 5632 5625 5619 5613 5607 5602 5596 5589 5583 5575 5567 5561 5555 5549 5541 5534 5528 5521 5515 5509 5505 5499
5695 5696 5697 5698 5699 5686 5689 5707 5730 5733 5725 5725 5729 5731 5730 5727 5724 5718 5709 5700 5692 5684 5676 5667 5658 5650 5641 5632 5624 5618 5612 5607 5601 5595 5589 5581 5573 5565 5557 5550 5543 5536 5529 5522 5515 5509 5501 5494 5488
5688 5685 5689 5697 5697 5682 5694 5708 5727 5735 5730 5729 5729 5729 5730 5729 5727 5721 5711 5701 5692 5683 5676 5669 5661 5652 5643 5635 5628 5622 5616 5608 5601 5594 5587 5579 5572 5563 5554 5547 5539 5531 5524 5518 5510 5502 5494 5486 5478
5679 5679 5688 5697 5683 5678 5691 5705 5724 5729 5726 5725 5725 5727 5727 5726 5723 5717 5708 5699 5692 5685 5678 5670 5663 5655 5647 5639 5631 5624 5615 5609 5602 5592 5585 5578 5570 5561 5552 5544 5536 5527 5519 5511 5503 5494 5486 5479 5470
5678 5677 5684 5681 5683 5680 5676 5708 5727 5732 5724 5721 5721 5720 5720 5717 5716 5713 5704 5696 5690 5685 5678 5671 5664 5656 5647 5637 5626 5618 5611 5606 5600 5593 5585 5577 5568 5559 5551 5541 5532 5524 5515 5508 5498 5488 5479 5472 5464
5677 5677 5670 5666 5668 5677 5668 5677 5713 5720 5719 5722 5724 5721 5718 5713 5710 5706 5701 5694 5688 5682 5675 5668 5661 5653 5645 5634 5627 5621 5615 5612 5607 5596 5586 5575 5565 5557 5548 5539 5529 5520 5511 5503 5493 5483 5473 5463 5456
5673 5665 5663 5660 5661 5663 5666 5663 5698 5713 5711 5713 5715 5714 5711 5707 5703 5700 5696 5691 5686 5679 5671 5664 5656 5650 5642 5633 5627 5619 5615 5612 5604 5595 5586 5575 5565 5555 5546 5536 5526 5517 5508 5498 5488 5478 5467 5457 5448
5662 5659 5656 5652 5657 5660 5664 5660 5684 5707 5701 5700 5704 5704 5702 5699 5697 5694 5691 5687 5682 5675 5668 5660 5653 5648 5639 5631 5624 5618 5614 5607 5600 5594 5585 5574 5564 5554 5543 5532 5523 5514 5504 5494 5483 5472 5461 5451 5441
5657 5659 5662 5661 5661 5664 5651 5650 5676 5702 5697 5690 5688 5690 5690 5691 5691 5689 5687 5684 5678 5672 5665 5658 5652 5646 5637 5629 5622 5616 5610 5602 5597 5591 5582 5570 5561 5551 5541 5529 5520 5511 5500 5488 5476 5465 5455 5445 5434
5653 5651 5648 5641 5648 5657 5647 5650 5686 5701 5693 5685 5681 5680 5682 5684 5684 5682 5681 5678 5674 5669 5663 5656 5650 5643 5635 5627 5620 5611 5603 5594 5591 5584 5576 5567 5559 5549 5537 5525 5516 5506 5495 5483 5471 5460 5449 5438 5427
5646 5644 5640 5636 5636 5629 5648 5658 5677 5694 5690 5684 5680 5676 5674 5674 5673 5673 5672 5671 5668 5664 5658 5652 5645 5638 5631 5623 5614 5606 5597 5589 5583 5575 5567 5560 5552 5542 5531 5521 5511 5500 5489 5478 5466 5455 5444 5432 5421
5638 5637 5629 5627 5624 5626 5641 5646 5664 5679 5681 5677 5670 5666 5666 5664 5663 5662 5662 5660 5658 5655 5650 5644 5638 5632 5624 5615 5607 5599 5591 5583 5574 5566 5560 5553 5544 5534 5525 5515 5504 5494 5483 5471 5460 5450 5438 5426 5415
5627 5624 5625 5626 5622 5619 5624 5645 5669 5668 5666 5657 5653 5654 5652 5650 5649 5649 5648 5647 5645 5643 5638 5633 5627 5620 5614 5606 5599 5591 5583 5575 5567 5560 5554 5545 5537 5527 5518 5509 5498 5488 5478 5466 5455 5446 5433 5420 5408
5629 5630 5624 5619 5623 5615 5616 5639 5671 5663 5651 5642 5641 5640 5637 5633 5632 5633 5633 5634 5633 5630 5626 5621 5615 5609 5602 5595 5588 5582 5574 5567 5560 5553 5546 5537 5529 5520 5511 5501 5492 5483 5473 5462 5451 5440 5428 5415 5402